Location: B�di�
(14.6834°N, 3.1047°W)
Time: 14:57:21
(UTC+00:00)

Cosmos 2366 rocket - Pass Details

Date: 24 January 2020
Orbit: 956 x 996 km, 82.9° (Epoch: 22 February)

Event Time Altitude Azimuth Distance (km) Brightness Sun altitude
Rises 18:17:26 0° 181° (S) 3,629 7.3 -3.2°
Reaches altitude 10° 18:19:54 10° 180° (S) 2,687 6.6 -3.7°
Maximum altitude 18:26:03 82° 94° (E) 976 4.0 -5.1°
Drops below altitude 10° 18:32:16 10° 6° (N) 2,715 6.1 -6.6°
Sets 18:34:47 0° 6° (N) 3,668 6.8 -7.2°
